[Iaude] MPEC L52: 2024 LW [a=0.98,e=0.41,i=23.2,H=22.0]
    mpec at cfa.harvard.edu 
    mpec at cfa.harvard.edu
       
    Tue Jun  4 22:10:27 EDT 2024
    
    
  
M.P.E.C. 2024-L52                                  Issued 2024 June 5, 02:08 UT
     The Minor Planet Electronic Circulars contain information on unusual
         minor planets, routine data on comets and natural satellites,
         and occasional editorial announcements.  They are published
    on behalf of Division F of the International Astronomical Union by the
          Minor Planet Center, Smithsonian Astrophysical Observatory,
                          Cambridge, MA 02138, U.S.A.
			  
             Prepared using the Tamkin Foundation Computer Network
                              MPC at CFA.HARVARD.EDU
            URL https://www.minorplanetcenter.net/    ISSN 1523-6714
                                    2024 LW                                     
Observations:
     K24L00W* C2024 06 02.44506717 31 49.721+53 24 46.77         22.20wXEL052F52
     K24L00W  C2024 06 02.45752317 31 46.842+53 25 15.19         22.28wXEL052F52
     K24L00W  C2024 06 02.48238517 31 41.067+53 26 12.27         22.02wXEL052F52
     K24L00W  C2024 06 02.52152817 31 31.918+53 27 40.78         22.35GVEL052F51
     K24L00W  C2024 06 02.52217017 31 31.811+53 27 41.81         22.17GVEL052F51
     K24L00W KC2024 06 03.20361917 29 03.692+53 53 31.06         21.83GVEL052V06
     K24L00W KC2024 06 03.20759417 29 02.746+53 53 40.20         21.95GVEL052V06
     K24L00W KC2024 06 03.21157217 29 01.810+53 53 49.70         21.82GVEL052V06
     K24L00W KC2024 06 03.21554917 29 00.859+53 53 59.17         22.02GVEL052V06
     K24L00W KC2024 06 03.40700817 28 14.166+54 01 19.34         21.9 GVEL052H01
     K24L00W KC2024 06 03.41106217 28 13.176+54 01 28.35         21.9 GVEL052H01
     K24L00W KC2024 06 03.41713617 28 11.695+54 01 41.86         21.8 GVEL052H01
     K24L00W KC2024 06 03.42843417 28 08.952+54 02 07.13         21.9 GVEL052H01
     K24L00W 1C2024 06 04.93174 17 22 05.19 +54 59 28.7          21.7 VXEL052033
     K24L00W 1C2024 06 04.93539 17 22 04.21 +54 59 37.5          21.4 VXEL052033
     K24L00W 1C2024 06 04.93903 17 22 03.20 +54 59 45.9          21.5 VXEL052033
     K24L00W 1C2024 06 04.94267 17 22 02.24 +54 59 54.3          21.2 VXEL052033
Observer details:
033 Karl Schwarzschild Observatory, Tautenburg.  Observers C. Heogner, F.
    Ludwig, M. Hartmann, B. Stecklum.  Measurer B. Stecklum.  1.34-m f/3
    Schmidt + CCD.
F51 Pan-STARRS 1, Haleakala.  Observers J. Herman, T. Lowe, P. Minguez, A.
    Schultz, I. Smith.  Measurers K. Chambers, T. de Boer, J. Fairlamb, H.
    Gao, M. Huber, C.-C. Lin, E. Magnier, Y. Ramanjooloo, R. Wainscoat, R.
    Weryk.  1.8-m Ritchey-Chretien + CCD.
F52 Pan-STARRS 2, Haleakala.  Observers J. Herman, T. Lowe, P. Minguez, A.
    Schultz, I. Smith.  Measurers K. Chambers, T. de Boer, J. Fairlamb, H.
    Gao, M. Huber, C.-C. Lin, E. Magnier, Y. Ramanjooloo, R. Wainscoat, R.
    Weryk.  1.8-m Ritchey-Chretien + CCD.
H01 Magdalena Ridge Observatory, Socorro.  Observers W. H. Ryan, E. V. Ryan.
    Measurer W. H. Ryan.  2.4-m f/8.9 Ritchey-Chretien + CCD.
V06 Catalina Sky Survey-Kuiper.  Observer K. W. Wierzchos.  Measurers T.
    Beuden, V. F. Carvajal, D. Fay, J. B. Fazekas, D. C. Fuls, A. R. Gibbs, A.
    D. Grauer, H. Groeller, J. K. Hogan, R. A. Kowalski, S. M. Larson, G. J.
    Leonard, D. Rankin, R. L. Seaman, F. C. Shelly, K. W. Wierzchos.  1.55-m
    reflector + 1K CCD.
Orbital elements:
2024 LW                                                  Earth MOID = 0.1009 AU
Epoch 2024 Mar. 31.0 TT = JDT 2460400.5                 Veres                   
M 203.88819              (2000.0)            P               Q                  
n   1.01056412     Peri.  266.37991     +0.84430056     -0.40590880             
a   0.9834678      Node   117.28445     +0.49063905     +0.84807591             
e   0.4096424      Incl.   23.18154     -0.21547595     +0.34059550             
P   0.98           H   22.01          G   0.15           U   8                  
Residuals in seconds of arc
240602 F52  0.1+  0.1-    240603 V06  0.0   0.0     240603 H01  0.1+  0.0
240602 F52  0.2+  0.3-    240603 V06  0.1+  0.0     240604 033  0.1-  0.3-
240602 F52  0.2+  0.0     240603 V06  0.1+  0.1+    240604 033  0.1-  0.0
240602 F51  0.3-  0.2+    240603 H01  0.0   0.0     240604 033  0.4-  0.1-
240602 F51  0.0   0.2-    240603 H01  0.0   0.1-    240604 033  0.2-  0.1-
240603 V06  0.0   0.2+    240603 H01  0.0   0.1-
Ephemeris:
2024 LW                  a,e,i = 0.98, 0.41, 23                  q = 0.5806
Date    TT    R. A. (2000) Decl.     Delta      r    Elong.  Phase     V
2024 05 06    18 11 26.5 +37 18 18   0.5181  1.2734   108.7    48.6    22.9
...
2024 05 21    18 01 06.1 +45 45 32   0.4203  1.2089   107.8    52.8    22.5
...
2024 05 29    17 45 27.3 +50 36 53   0.3699  1.1685   105.6    56.7    22.2
...
2024 06 04    17 25 56.1 +54 23 49   0.3329  1.1355   102.8    60.6    22.1
2024 06 05    17 21 47.2 +55 02 03   0.3269  1.1297   102.2    61.4    22.0
2024 06 06    17 17 19.7 +55 40 18   0.3208  1.1239   101.6    62.2    22.0
...
2024 06 12    16 42 34.2 +59 26 43   0.2853  1.0878    97.0    67.9    21.9
...
2024 06 20    15 24 03.5 +63 38 41   0.2407  1.0362    88.0    78.5    21.7
...
2024 07 05    11 13 00.4 +55 40 38   0.1811  0.9299    56.8   113.9    22.6
M. P. C. Staff               (C) Copyright 2024 MPC           M.P.E.C. 2024-L52
    
    
More information about the Iaude
mailing list